DW6610 Weather Reports


time (UTC)temp
F
wind
direction
speed
knots
gust
knots
rain 1hr
in
rain 24hr
in
rain mn
in
humidity
%
barometer
mb
20260831103104 73 0 0.0 0.9 0.00 0.00 0.00 94 1018.7
20260831102556 73 0 0.0 0.9 0.00 0.00 0.00 94 1018.5
20260831102051 73 0 0.0 0.9 0.00 0.00 0.00 94 1018.5
20260831101609 73 75 0.0 0.9 0.00 0.00 0.00 94 1018.5
20260831101051 73 0 0.0 0.9 0.00 0.00 0.00 93 1018.5
20260831100551 73 0 0.0 0.9 0.00 0.00 0.00 93 1018.4
20260831100109 73 0 0.0 0.9 0.00 0.00 0.00 93 1018.4
20260831095551 73 0 0.0 1.7 0.00 0.00 0.00 93 1018.2
20260831095052 73 73 0.0 1.7 0.00 0.00 0.00 93 1018.2
20260831094632 73 0 0.0 0.9 0.00 0.00 0.00 94 1018.2
20260831094052 73 0 0.0 0.9 0.00 0.00 0.00 94 1018.3
20260831093550 73 0 0.0 0.9 0.00 0.00 0.00 94 1018.3
20260831093107 73 84 0.0 0.9 0.00 0.00 0.00 94 1018.4
20260831092550 73 83 0.0 0.9 0.00 0.00 0.00 94 1018.3
20260831092049 73 0 0.0 0.9 0.00 0.00 0.00 94 1018.3
20260831091617 73 0 0.0 0.0 0.00 0.00 0.00 93 1018.3
20260831091049 73 0 0.0 0.9 0.00 0.00 0.00 93 1018.3
20260831090549 73 0 0.0 0.9 0.00 0.00 0.00 93 1018.3
20260831090107 73 0 0.0 0.0 0.00 0.00 0.00 93 1018.2
20260831085550 73 0 0.0 0.0 0.00 0.00 0.00 92 1018.3
20260831085050 73 0 0.0 0.0 0.00 0.00 0.00 92 1018.2
20260831084602 74 0 0.0 0.9 0.00 0.00 0.00 91 1018.1
20260831084049 74 0 0.0 0.9 0.00 0.00 0.00 91 1018.0
20260831083550 74 0 0.0 0.9 0.00 0.00 0.00 91 1018.0
20260831083107 74 0 0.0 0.9 0.00 0.00 0.00 91 1018.0
20260831082550 74 0 0.0 0.9 0.00 0.00 0.00 91 1018.0
20260831082050 74 0 0.0 0.9 0.00 0.00 0.00 91 1018.0
20260831081605 74 0 0.0 0.9 0.00 0.00 0.00 90 1017.8
20260831081051 74 0 0.0 0.9 0.00 0.00 0.00 90 1017.9
20260831080549 74 0 0.0 0.9 0.00 0.00 0.00 90 1017.8
20260831080106 75 0 0.0 0.9 0.00 0.00 0.00 90 1017.8
20260831075549 75 83 0.0 0.9 0.00 0.00 0.00 90 1017.8
20260831075050 75 0 0.0 0.9 0.00 0.00 0.00 89 1017.8
20260831074613 75 0 0.0 0.9 0.00 0.00 0.00 90 1017.9
20260831074051 75 0 0.0 0.9 0.00 0.00 0.00 89 1017.8
20260831073550 75 0 0.0 0.9 0.00 0.00 0.00 89 1017.8
20260831073107 75 83 0.0 0.9 0.00 0.00 0.00 89 1017.8
20260831072549 75 0 0.0 0.9 0.00 0.00 0.00 89 1017.8
20260831072050 75 83 0.0 0.9 0.00 0.00 0.00 88 1018.0
20260831071615 75 0 0.0 0.9 0.00 0.00 0.00 89 1018.0
20260831071051 75 0 0.0 0.9 0.00 0.00 0.00 89 1018.1
20260831070549 75 0 0.0 0.9 0.00 0.00 0.00 89 1018.1
20260831070107 75 0 0.0 0.9 0.00 0.00 0.00 89 1018.1
20260831065549 75 0 0.0 0.9 0.00 0.00 0.00 89 1018.2
20260831065051 75 0 0.0 0.9 0.00 0.00 0.00 90 1018.1
20260831064620 75 0 0.0 0.9 0.00 0.00 0.00 90 1018.2
20260831064050 75 0 0.0 0.0 0.00 0.00 0.00 90 1018.3
20260831063550 75 0 0.0 0.9 0.00 0.00 0.00 89 1018.3
20260831063117 76 0 0.0 0.9 0.00 0.00 0.00 89 1018.4
20260831062552 76 0 0.0 0.9 0.00 0.00 0.00 89 1018.3
20260831062052 76 0 0.0 0.9 0.00 0.00 0.00 88 1018.4
20260831061603 76 0 0.0 0.9 0.00 0.00 0.00 89 1018.4
20260831061052 76 0 0.0 0.9 0.00 0.00 0.00 87 1018.3
20260831060551 77 0 0.0 0.9 0.00 0.00 0.00 85 1018.4
20260831060126 77 0 0.0 0.9 0.00 0.00 0.00 86 1018.4
20260831055551 77 0 0.0 0.9 0.00 0.00 0.00 85 1018.4
20260831055052 77 0 0.0 0.9 0.00 0.00 0.00 85 1018.4
20260831054602 77 0 0.0 0.9 0.00 0.00 0.00 84 1018.3
20260831054051 78 0 0.0 0.9 0.00 0.00 0.00 84 1018.3
20260831053552 78 0 0.0 0.9 0.00 0.00 0.00 83 1018.4
20260831053112 78 0 0.0 0.9 0.00 0.00 0.00 82 1018.3
20260831052552 78 0 0.0 0.9 0.00 0.00 0.00 82 1018.3
20260831052051 79 0 0.0 0.9 0.00 0.00 0.00 81 1018.2
20260831051614 79 0 0.0 0.9 0.00 0.00 0.00 80 1018.2
20260831051051 79 0 0.0 0.9 0.00 0.00 0.00 80 1018.2
20260831050551 79 82 0.0 1.7 0.00 0.00 0.00 80 1018.1
20260831050120 79 85 0.0 1.7 0.00 0.00 0.00 80 1018.2
20260831045551 80 0 0.0 1.7 0.00 0.00 0.00 79 1018.2
20260831045051 80 0 0.0 1.7 0.00 0.00 0.00 79 1018.1
20260831044607 80 71 0.0 1.7 0.00 0.00 0.00 79 1018.2
20260831044052 80 0 0.0 0.9 0.00 0.00 0.00 78 1018.3
20260831043553 80 0 0.0 2.6 0.00 0.00 0.00 78 1018.3
20260831043103 81 50 0.0 2.6 0.00 0.00 0.00 78 1018.3
20260831042552 81 41 0.9 2.6 0.00 0.00 0.00 77 1018.3
20260831042054 81 57 0.0 2.6 0.00 0.00 0.00 77 1018.3
20260831041604 81 68 0.9 2.6 0.00 0.00 0.00 77 1018.3
20260831041055 81 61 0.9 2.6 0.00 0.00 0.00 77 1018.3
20260831040553 81 77 0.9 2.6 0.00 0.00 0.00 77 1018.3
20260831040105 81 21 0.9 2.6 0.00 0.00 0.00 77 1018.3
20260831035553 82 0 0.9 1.7 0.00 0.00 0.00 76 1018.3
20260831035051 82 70 0.0 3.5 0.00 0.00 0.00 76 1018.3
20260831034600 82 75 0.9 3.5 0.00 0.00 0.00 76 1018.2
20260831034051 82 100 0.9 2.6 0.00 0.00 0.00 76 1018.2
20260831033553 82 46 0.9 2.6 0.00 0.00 0.00 76 1018.1
20260831033113 82 66 0.0 2.6 0.00 0.00 0.00 76 1018.1
20260831032551 82 0 0.9 2.6 0.00 0.00 0.00 76 1018.0
20260831032052 82 93 0.0 2.6 0.00 0.00 0.00 76 1018.1
20260831031605 82 86 0.9 3.5 0.00 0.00 0.00 75 1018.0
20260831031053 82 82 0.9 3.5 0.00 0.00 0.00 75 1018.0
20260831030552 82 71 0.0 3.5 0.00 0.00 0.00 75 1018.0
20260831030105 83 53 0.9 3.5 0.00 0.00 0.00 75 1018.0
20260831025553 83 50 0.9 2.6 0.00 0.00 0.00 75 1017.9
20260831025055 83 70 0.0 2.6 0.00 0.00 0.00 75 1017.9
20260831024605 83 96 0.0 2.6 0.00 0.00 0.00 75 1017.9
20260831024053 83 75 0.0 2.6 0.00 0.00 0.00 75 1017.9
20260831023552 84 31 0.9 3.5 0.00 0.00 0.00 74 1017.8
20260831023111 84 60 0.9 3.5 0.00 0.00 0.00 74 1017.8
20260831022552 84 52 0.9 3.5 0.00 0.00 0.00 74 1017.7
20260831022052 84 94 0.9 2.6 0.00 0.00 0.00 74 1017.7
20260831021614 84 94 0.9 2.6 0.00 0.00 0.00 74 1017.7
20260831021053 84 47 0.9 2.6 0.00 0.00 0.00 74 1017.6
20260831020552 84 32 0.0 1.7 0.00 0.00 0.00 74 1017.5
20260831020116 84 81 0.0 1.7 0.00 0.00 0.00 74 1017.4
20260831015552 84 83 0.0 1.7 0.00 0.00 0.00 73 1017.4
20260831015051 84 68 0.0 2.6 0.00 0.00 0.00 73 1017.4
20260831014604 85 134 0.0 2.6 0.00 0.00 0.00 72 1017.2
20260831014051 85 80 0.0 1.7 0.00 0.00 0.00 72 1017.3
20260831013551 85 0 0.0 1.7 0.00 0.00 0.00 72 1017.3
20260831013101 85 78 0.0 1.7 0.00 0.00 0.00 72 1017.4
20260831012552 85 115 0.0 1.7 0.00 0.00 0.00 72 1017.3
20260831012052 86 129 0.0 1.7 0.00 0.00 0.00 71 1017.2
20260831011609 86 81 0.0 1.7 0.00 0.00 0.00 70 1017.1
20260831011052 86 81 0.0 1.7 0.00 0.00 0.00 70 1017.1
20260831010552 86 79 0.0 1.7 0.00 0.00 0.00 69 1017.0
20260831005556 87 74 0.0 0.9 0.00 0.00 0.00 69 1017.0
20260831005052 87 74 0.0 0.9 0.00 0.00 0.00 67 1016.9
20260831004600 88 0 0.0 0.9 0.00 0.00 0.00 66 1016.9
20260831004052 88 73 0.0 1.7 0.00 0.00 0.00 65 1016.9
20260831003551 88 79 0.0 1.7 0.00 0.00 0.00 65 1017.0
20260831003105 89 0 0.0 0.9 0.00 0.00 0.00 64 1016.9
20260831002644 89 0 0.0 0.9 0.00 0.00 0.00 64 1016.9
20260831002052 89 0 0.0 0.9 0.00 0.00 0.00 63 1016.9
20260831001559 90 0 0.0 1.7 0.00 0.00 0.00 62 1016.8
20260831001051 90 79 0.0 1.7 0.00 0.00 0.00 62 1016.7
20260831000551 91 76 0.0 1.7 0.00 0.00 0.00 62 1016.8
20260831000112 91 0 0.0 2.6 0.00 0.00 0.00 61 1016.9
20260830235552 91 0 0.0 3.5 0.00 0.00 0.00 61 1016.8
20260830235053 92 72 0.0 3.5 0.00 0.00 0.00 60 1016.8
20260830234613 92 88 0.9 3.5 0.00 0.00 0.00 59 1016.8
20260830234056 92 280 0.9 3.5 0.00 0.00 0.00 58 1017.0
20260830233553 93 98 0.9 3.5 0.00 0.00 0.00 58 1016.9
20260830233103 93 81 0.9 4.3 0.00 0.00 0.00 58 1016.9
20260830232553 93 110 0.9 4.3 0.00 0.00 0.00 57 1016.8
20260830232053 94 174 1.7 4.3 0.00 0.00 0.00 57 1016.7
20260830231612 93 245 0.9 4.3 0.00 0.00 0.00 58 1016.7
20260830231051 93 96 1.7 4.3 0.00 0.00 0.00 57 1016.7
20260830230551 94 335 0.9 3.5 0.00 0.00 0.00 57 1016.8
20260830230108 94 82 0.9 4.3 0.00 0.00 0.00 56 1016.8
20260830225553 95 244 0.9 5.2 0.00 0.00 0.00 55 1016.8
20260830225052 95 42 1.7 5.2 0.00 0.00 0.00 55 1016.8
20260830224608 96 112 1.7 4.3 0.00 0.00 0.00 54 1016.8
20260830224052 97 169 1.7 4.3 0.00 0.00 0.00 53 1016.7
20260830223552 97 92 1.7 7.0 0.00 0.00 0.00 52 1016.7
20260830223100 97 105 1.7 7.0 0.00 0.00 0.00 52 1016.7
20260830222553 98 353 1.7 5.2 0.00 0.00 0.00 50 1016.6
20260830222052 98 347 0.9 4.3 0.00 0.00 0.00 49 1016.6
20260830221610 98 110 2.6 4.3 0.00 0.00 0.00 51 1016.7
20260830221052 98 73 1.7 5.2 0.00 0.00 0.00 50 1016.7
20260830220552 99 194 1.7 5.2 0.00 0.00 0.00 49 1016.8
20260830220115 99 37 1.7 5.2 0.00 0.00 0.00 49 1016.7
20260830215554 99 65 1.7 5.2 0.00 0.00 0.00 48 1016.8
20260830215053 99 7 1.7 4.3 0.00 0.00 0.00 48 1016.8
20260830214608 99 306 1.7 4.3 0.00 0.00 0.00 48 1016.8
20260830214052 99 336 1.7 5.2 0.00 0.00 0.00 49 1016.9
20260830213553 99 60 1.7 5.2 0.00 0.00 0.00 48 1016.8
20260830213126 99 54 1.7 5.2 0.00 0.00 0.00 49 1016.9
20260830212552 99 108 1.7 5.2 0.00 0.00 0.00 49 1016.8
20260830212052 99 147 0.9 5.2 0.00 0.00 0.00 50 1016.9
20260830211603 98 75 0.9 5.2 0.00 0.00 0.00 51 1016.9
20260830211052 98 86 1.7 6.1 0.00 0.00 0.00 47 1017.0
20260830210551 98 79 2.6 6.1 0.00 0.00 0.00 49 1017.1
20260830210106 98 29 1.7 5.2 0.00 0.00 0.00 48 1017.1
20260830205552 98 122 2.6 6.1 0.00 0.00 0.00 49 1017.1
20260830205051 99 347 2.6 6.1 0.00 0.00 0.00 48 1017.1
20260830204611 98 74 0.9 6.1 0.00 0.00 0.00 54 1017.2
20260830204053 97 75 1.7 5.2 0.00 0.00 0.00 51 1017.2
20260830203553 97 222 0.9 5.2 0.00 0.00 0.00 52 1017.3
20260830203110 97 294 0.9 6.1 0.00 0.00 0.00 52 1017.3
20260830202552 97 117 1.7 6.1 0.00 0.00 0.00 55 1017.4
20260830202054 96 56 1.7 6.1 0.00 0.00 0.00 53 1017.5
20260830201604 96 121 0.9 5.2 0.00 0.00 0.00 53 1017.5
20260830201051 96 290 2.6 7.0 0.00 0.00 0.00 53 1017.5
20260830200552 96 255 1.7 7.0 0.00 0.00 0.00 54 1017.5
20260830195552 95 94 0.9 4.3 0.00 0.00 0.00 56 1017.7
20260830195055 95 105 1.7 6.1 0.00 0.00 0.00 53 1017.7
20260830194616 96 66 2.6 6.1 0.00 0.00 0.00 55 1017.8
20260830194052 97 46 1.7 4.3 0.00 0.00 0.00 51 1018.0
20260830193552 97 71 0.9 4.3 0.00 0.00 0.00 56 1018.0
20260830193102 96 43 1.7 6.1 0.00 0.00 0.00 55 1018.1
20260830192551 96 96 1.7 6.1 0.00 0.00 0.00 53 1018.3
20260830192051 97 103 0.9 4.3 0.00 0.00 0.00 56 1018.2
20260830191557 96 99 1.7 4.3 0.00 0.00 0.00 54 1018.3
20260830191051 96 352 1.7 4.3 0.00 0.00 0.00 55 1018.4
20260830190553 96 115 1.7 4.3 0.00 0.00 0.00 54 1018.4
20260830190104 95 131 1.7 4.3 0.00 0.00 0.00 54 1018.6
20260830185553 95 105 1.7 5.2 0.00 0.00 0.00 54 1018.6
20260830185052 96 77 2.6 5.2 0.00 0.00 0.00 57 1018.7
20260830184613 96 21 0.9 6.1 0.00 0.00 0.00 57 1018.6
20260830184053 96 89 2.6 6.1 0.00 0.00 0.00 53 1018.7
20260830183551 95 79 1.7 5.2 0.00 0.00 0.00 54 1018.7
20260830183103 96 354 1.7 5.2 0.00 0.00 0.00 52 1018.7
20260830182552 97 122 0.9 2.6 0.00 0.00 0.00 53 1018.8
20260830182052 97 92 0.9 5.2 0.00 0.00 0.00 55 1018.8
20260830181604 96 80 1.7 6.1 0.00 0.00 0.00 52 1018.7
20260830181054 97 55 2.6 6.1 0.00 0.00 0.00 52 1018.7
20260830180551 97 32 1.7 6.1 0.00 0.00 0.00 53 1018.8
20260830180104 96 332 2.6 6.1 0.00 0.00 0.00 51 1018.8
20260830175549 97 72 0.9 6.1 0.00 0.00 0.00 54 1018.9
20260830175049 97 115 2.6 6.1 0.00 0.00 0.00 53 1018.9
20260830174605 96 72 2.6 6.1 0.00 0.00 0.00 52 1018.9
20260830174054 96 24 1.7 7.0 0.00 0.00 0.00 54 1019.0
20260830173553 96 318 3.5 7.0 0.00 0.00 0.00 52 1019.1
20260830173106 96 129 1.7 6.1 0.00 0.00 0.00 52 1019.2
20260830172553 96 75 2.6 6.1 0.00 0.00 0.00 54 1019.2
20260830172050 95 32 1.7 6.1 0.00 0.00 0.00 53 1019.4
20260830171605 95 67 2.6 6.1 0.00 0.00 0.00 53 1019.4
20260830171051 95 295 0.9 7.0 0.00 0.00 0.00 52 1019.4
20260830170553 95 11 2.6 7.0 0.00 0.00 0.00 53 1019.5
20260830170108 94 102 2.6 7.0 0.00 0.00 0.00 55 1019.5
20260830165550 94 332 0.9 5.2 0.00 0.00 0.00 57 1019.5
20260830165050 94 345 2.6 5.2 0.00 0.00 0.00 54 1019.6
20260830164603 94 335 1.7 5.2 0.00 0.00 0.00 59 1019.6
20260830164053 94 24 1.7 5.2 0.00 0.00 0.00 56 1019.6
20260830163554 94 96 0.9 6.1 0.00 0.00 0.00 59 1019.7
20260830163106 94 86 1.7 6.1 0.00 0.00 0.00 57 1019.8
20260830162550 95 79 2.6 6.1 0.00 0.00 0.00 54 1019.7
20260830162049 94 96 1.7 4.3 0.00 0.00 0.00 58 1019.7
20260830161629 94 48 1.7 5.2 0.00 0.00 0.00 57 1019.7
20260830161053 94 87 1.7 5.2 0.00 0.00 0.00 56 1019.8
20260830160554 94 74 1.7 4.3 0.00 0.00 0.00 57 1019.7
20260830160110 94 347 1.7 6.1 0.00 0.00 0.00 55 1019.8
20260830155550 93 25 0.9 6.1 0.00 0.00 0.00 54 1019.8
20260830155050 93 105 1.7 5.2 0.00 0.00 0.00 53 1019.8
20260830154606 93 98 1.7 3.5 0.00 0.00 0.00 55 1019.8
20260830154050 93 127 0.9 3.5 0.00 0.00 0.00 57 1019.8
20260830153549 92 47 1.7 4.3 0.00 0.00 0.00 56 1019.7
20260830153105 92 301 1.7 4.3 0.00 0.00 0.00 56 1019.8
20260830152552 92 167 0.9 4.3 0.00 0.00 0.00 57 1019.8
20260830152050 91 85 0.9 4.3 0.00 0.00 0.00 62 1019.8
20260830151612 91 77 1.7 4.3 0.00 0.00 0.00 61 1019.8
20260830151052 91 118 0.9 5.2 0.00 0.00 0.00 64 1019.7
20260830150550 90 79 1.7 5.2 0.00 0.00 0.00 65 1019.8
20260830150105 90 70 0.9 3.5 0.00 0.00 0.00 65 1019.8
20260830145551 90 94 0.9 3.5 0.00 0.00 0.00 66 1019.8
20260830145052 89 63 0.9 4.3 0.00 0.00 0.00 65 1019.7
20260830144630 89 4 0.9 4.3 0.00 0.00 0.00 69 1019.8
20260830144052 88 72 0.9 4.3 0.00 0.00 0.00 69 1019.8
20260830143558 87 0 0.0 1.7 0.00 0.00 0.00 75 1019.8
20260830143108 86 86 0.9 3.5 0.00 0.00 0.00 72 1019.9
20260830142552 85 78 1.7 3.5 0.00 0.00 0.00 74 1020.0
20260830142052 85 43 0.9 5.2 0.00 0.00 0.00 74 1020.1
20260830141608 84 70 0.0 5.2 0.00 0.00 0.00 76 1020.0
20260830141052 84 315 0.9 4.3 0.00 0.00 0.00 75 1020.1
20260830140552 83 75 0.0 3.5 0.00 0.00 0.00 77 1020.0
20260830140110 82 134 0.9 4.3 0.00 0.00 0.00 77 1020.1
20260830135552 82 75 1.7 4.3 0.00 0.00 0.00 78 1020.1
20260830135052 81 57 0.9 3.5 0.00 0.00 0.00 78 1020.2
20260830134608 81 65 0.9 3.5 0.00 0.00 0.00 78 1020.1
20260830134054 80 79 0.9 3.5 0.00 0.00 0.00 79 1020.1
20260830133551 80 0 0.9 3.5 0.00 0.00 0.00 79 1020.1
20260830133109 79 0 0.0 0.9 0.00 0.00 0.00 80 1020.2
20260830132553 78 0 0.0 0.9 0.00 0.00 0.00 83 1020.1
20260830132051 77 57 0.0 0.9 0.00 0.00 0.00 84 1020.1
20260830131605 76 58 0.0 0.9 0.00 0.00 0.00 89 1020.1
20260830131052 74 0 0.0 0.9 0.00 0.00 0.00 91 1020.1
20260830130551 72 0 0.0 0.0 0.00 0.00 0.00 97 1019.9
20260830130116 71 0 0.0 0.0 0.00 0.00 0.00 97 1020.0
20260830125552 70 0 0.0 0.0 0.00 0.00 0.00 98 1019.8
20260830125051 69 0 0.0 1.7 0.00 0.00 0.00 98 1019.9
20260830124601 69 0 0.0 1.7 0.00 0.00 0.00 98 1019.9
20260830124100 68 0 0.0 0.9 0.00 0.00 0.00 98 1019.8
20260830123552 68 0 0.0 0.0 0.00 0.00 0.00 99 1019.7
20260830123109 67 0 0.0 0.0 0.00 0.00 0.00 99 1019.8
20260830122553 67 0 0.0 0.0 0.00 0.00 0.00 99 1019.7
20260830122054 67 0 0.0 0.0 0.00 0.00 0.00 99 1019.7
20260830121607 67 0 0.0 0.0 0.00 0.00 0.00 99 1019.7
20260830121052 67 0 0.0 0.0 0.00 0.00 0.00 99 1019.6
20260830120552 66 0 0.0 0.0 0.00 0.00 0.00 99 1019.6
20260830120109 66 0 0.0 0.0 0.00 0.00 0.00 99 1019.4
20260830115552 66 0 0.0 0.0 0.00 0.00 0.00 99 1019.4
20260830115053 66 0 0.0 0.0 0.00 0.00 0.00 99 1019.3
20260830114617 66 0 0.0 0.0 0.00 0.00 0.00 99 1019.3
20260830114051 66 0 0.0 0.9 0.00 0.00 0.00 99 1019.3
20260830113556 66 0 0.0 0.9 0.00 0.00 0.00 98 1019.2
20260830113101 66 0 0.0 0.9 0.00 0.00 0.00 99 1019.2
20260830112552 66 0 0.0 0.9 0.00 0.00 0.00 98 1019.1
20260830112055 66 0 0.0 0.0 0.00 0.00 0.00 98 1019.1
20260830111601 66 0 0.0 0.9 0.00 0.00 0.00 98 1019.1
20260830111053 66 0 0.0 0.9 0.00 0.00 0.00 98 1019.0
20260830110552 66 0 0.0 0.0 0.00 0.00 0.00 98 1018.8
20260830110104 66 0 0.0 0.9 0.00 0.00 0.00 98 1018.7
20260830105552 66 0 0.0 0.9 0.00 0.00 0.00 99 1018.6
20260830105052 66 0 0.0 0.9 0.00 0.00 0.00 99 1018.6
20260830104609 66 0 0.0 0.9 0.00 0.00 0.00 99 1018.6
20260830104052 66 0 0.0 0.9 0.00 0.00 0.00 99 1018.5
20260830103555 66 0 0.0 0.0 0.00 0.00 0.00 99 1018.4